Terminal Aerodrome Forecast
Issued by NWS Pueblo, CO

Home | Current Version | Previous Version | Text Only | Print | Product List | Glossary On
Versions: 1 2 3 4 5 6 7 8 9 10 11 12 13 14 15 16
000
FTUS45 KPUB 272326
TAFPUB
TAF
KPUB 272326Z 2800/2824 04010KT P6SM SCT110 SCT200
     FM280300 36007KT P6SM FEW120 SCT200
     FM280800 33006KT P6SM SCT120 BKN200
     FM281800 13008KT P6SM FEW120 SCT200
     FM282100 14011KT P6SM SCT100 BKN200=

USA.gov is the U.S. government's official web portal to all federal, state and local government web resources and services.